Probability
0 0 0 0 0 0 0 0 0 0 0 0 0 0 0 0 0 0 0 0 0 0 0 0 0 0 0 0 0 0 0 0 0 0 0 0 0 0 0 0 0 0 0 0
0 0 0 0 0 0 0 0 0 0 0 0 0 0 0 0 0 0 0 0 0 0 0 0 0 0 0 0 0 0 0 0 0 0 0 0 0 0 0 0 0 0 0 0
0 0 0 0 0 0 0 0 0 0 0 0 0 0 0 0 0 0 0 0 0 0 0 0 0 0 0 0 0 0 0 0 0 0 0 0 0 0 0 0 0 0 0 0
0 0 0 0 0 0 0 0 0 0 0 0 0 0 0 0 0 0 0 0 0 0 0 0 0 0 0 0 0 0 0 0 0 0 0 0 0 0 0 0 0 0 0 0
0 0 0 0 0 0 0 0 0 0 0 0 0 0 0 0 0 0 0 0 0 0 0 0 0 0 0 0 0 0 0 0 0 0 0 0 0 0 0 0 0 0 0 0
0 0 0 0 0 0 0 0 0 0 0 0 0 0 0 0 0 0 0 0 0 0 0 0 0 0 0 0 0 0 0 0 0 0 0 0 0 0 0 0 0 0 0 0
0 0 0 0 0 0 0 0 0 0 0 0 0 0 0 0 0 0 0 0 0 0 0 0 0 0 0 0 0 0 0 0 0 0 0 0 0 0 0 0 0 0 0 0
0 0 0 0 0 0 0 0 0 0 0 0 0 0 0 0 0 0 0 0 0 0 0 0 0 0 0 0 0 0 0 0 0 0 0 0 0 0 0 0 0 0 0 0
0 0 0 0 0 0 0 0 0 0 0 0 0 0 0 0 0 0 0 0 0 0 0 0 0 0 0 0 0 0 0 0 0 0 0 0 0 0 0 0 0 0 0 0
0 0 0 0 0 0 0 0 0 0 0 0 0 0 0 0 0 0 0 0 0 0 0 0 0 0 0 0 0 0 0 0 0 0 0 0 0 0 0 0 0 0 0 0
0 0 0 0 0 0 0 0 0 0 0 0 0 0 0 0 0 0 0 0 0 0 0 0 0 0 0 0 0 0 0 0 0 0 0 0 0 0 0 0 0 0 0 0
0 0 0 0 0 0 0 0 0 0 0 0 0 0 0 0 0 0 0 0 0 0 0 0 0 0 0 0 0 0 0 0 0 0 0 0 0 0 0 0 0 0 0 0
0 0 0 0 0 0 0 0 0 0 0 0 0 0 0 0 0 0 0 0 0 0 0 0 0 0 0 0 0 0 0 0 0 0 0 0 0 0 0 0 0 0 0 0
0 0 0 0 0 0 0 0 0 0 0 0 0 0 0 0 0 0 0 0 0 0 0 0 0 0 0 0 0 0 0 0 0 0 0 0 0 0 0 0 0 0 0 0
0 0 0 0 0 0 0 0 0 0 0 0 0 0 0 0 0 0 0 0 0 0 0 0 0 0 0 0 0 0 0 0 0 0 0 0 0 0 0 0 0 0 0 0
0 0 0 0 0 0 0 0 0 0 0 0 0 0 0 0 0 0 0 0 0 0 0 0 0 0 0 0 0 0 0 0 0 0 0 0 0 0 0 0 0 0 0 0
0 0 0 0 0 0 0 0 0 0 0 0 0 0 0 0 0 0 0 0 0 0 0 0 0 0 0 0 0 0 0 0 0 0 0 0 0 0 0 0 0 0 0 0
0 0 0 0 0 0 0 0 0 0 0 0 0 0 0 0 0 0 0 0 0 0 0 0 0 0 0 0 0 0 0 0 0 0 0 0 0 0 0 0 0 0 0 0
0 0 0 0 0 0 0 0 0 0 0 0 0 0 0 0 0 0 0 0 0 0 0 0 0 0 0 0 0 0 0 0 0 0 0 0 0 0 0 0 0 0 0 0
0 0 0 0 0 0 0 0 0 0 0 0 0 0 0 0 0 0 0 0 0 0 0 0 0 0 0 0 0 0 0 0 0 0 0 0 0 0 0 0 0 0 0 0
0 0 0 0 0 0 0 0 0 0 0 0 0 0 0 0 0 0 0 0 0 0 0 0 0 0 0 0 0 0 0 0 0 0 0 0 0 0 0 0 0 0 0 0
0 0 0 0 0 0 0 0 0 0 0 0 0 0 0 0 0 0 0 0 0 0 0 0 0 0 0 0 0 0 0 0 0 0 0 0 0 0 0 0 0 0 0 0
0 0 0 0 0 0 0 0 0 0 0 0 0 0 0 0 0 0 0 0 0 0 0 0 0 0 0 0 0 0 0 0 0 0 0 0 0 0 0 0 0 0 0 0
0 0 0 0 0 0 0 0 0 0 0 0 0 0 0 0 0 0 0 0 0 0 0 0 0 0 0 0 0 0 0 0 0 0 0 0 0 0 0 0 0 0 0 0
0 0 0 0 0 0 0 0 0 0 0 0 0 0 0 0 0 0 0 0 0 0 0 0 0 0 0 0 0 0 0 0 0 0 0 0 0 0 0 0 0 0 0 0
0 0 0 0 0 0 0 0 0 0 0 0 0 0 0 0 0 0 0 0 0 0 0 0 0 0 0 0 0 0 0 0 0 0 0 0 0 0 0 0 0 0 0 0
Wind_Speed
4 6 2 1 1 3 5 5 4 1 0 2 3 2 2 2 2 2 2 2 1 0 1 2 3 4 5 6 6 6 7 7 5 3 3 2 2 3 3 3 4 4 3 3
5 2 1 1 2 5 6 6 3 1 1 2 2 2 3 3 3 4 4 4 3 1 2 3 3 4 4 5 5 6 6 6 6 4 2 2 2 2 2 3 4 4 4 3
5 1 1 3 4 4 3 4 4 3 2 2 1 3 2 2 1 2 3 3 3 2 1 2 2 3 3 4 4 4 5 5 5 5 3 3 2 2 3 4 4 4 4 4
3 2 2 4 2 3 2 1 4 4 3 1 1 3 5 3 2 3 4 4 3 3 2 1 1 2 2 3 3 4 4 4 5 4 4 4 3 3 3 3 3 4 4 4
2 1 3 2 0 2 3 3 4 3 2 2 0 1 6 1 4 6 6 6 5 4 3 2 1 1 1 2 2 3 3 4 4 4 4 3 3 2 3 3 4 4 3 4
2 1 1 1 1 2 4 4 4 4 4 1 3 4 6 5 7 6 6 6 5 4 3 2 1 0 1 2 2 3 3 4 4 4 3 3 3 4 4 5 4 4 3 3
2 2 2 1 4 3 3 5 3 3 2 5 1 3 8 6 6 7 7 7 5 5 4 2 1 0 1 2 3 3 3 4 4 3 3 3 3 3 4 4 4 4 3 3
4 2 2 0 2 3 2 4 6 5 4 3 1 5 7 3 3 4 5 5 5 4 4 3 3 2 1 1 1 2 2 3 3 3 3 3 3 2 3 4 3 3 3 4
6 3 1 0 0 3 4 2 2 4 2 1 5 5 7 1 1 2 3 4 4 5 4 4 3 2 2 1 1 1 2 3 3 3 3 3 3 3 3 4 4 3 4 4
5 4 1 1 1 2 2 4 4 4 4 3 5 5 5 5 5 4 5 6 5 4 4 4 3 3 3 2 2 1 1 2 3 3 2 3 3 3 3 3 4 4 5 5
3 6 1 1 3 4 2 2 3 3 4 4 4 7 6 7 7 8 8 7 6 6 5 4 4 4 3 1 1 1 1 2 2 3 3 3 3 3 4 3 4 4 4 5
3 5 2 3 2 1 2 3 5 5 4 3 3 8 3 4 5 6 6 6 5 5 5 4 3 2 2 1 1 1 1 2 2 2 3 3 3 4 4 4 4 4 5 5
5 7 4 3 3 1 2 3 3 4 4 4 5 9 2 1 2 4 5 5 5 5 4 3 3 3 3 2 2 2 2 2 2 2 2 3 4 4 4 4 5 4 4 5
5 4 6 9 6 6 5 5 6 6 5 6 9 9 6 4 4 4 4 5 5 5 5 4 4 4 3 3 2 2 2 2 2 2 2 3 3 4 4 4 5 5 5 5
4 3 3 2 0 2 5 6 9 10 10 10 9 9 11 9 7 7 5 5 5 5 5 6 6 5 4 3 2 2 2 1 1 1 2 3 3 3 4 4 4 5 5 5
3 4 2 1 1 1 5 8 10 11 9 10 9 14 10 6 4 5 6 7 7 7 7 7 6 5 5 4 3 2 2 1 1 1 2 3 3 3 4 4 4 5 5 5
4 6 4 3 2 3 10 13 15 10 10 11 15 15 5 6 8 9 9 9 9 9 8 7 7 7 6 5 4 4 3 1 0 1 2 2 3 3 4 4 5 5 5 5
7 6 4 2 2 9 10 5 10 11 11 13 11 8 8 10 8 6 8 9 9 9 8 8 7 6 5 4 3 2 1 1 1 1 1 2 2 3 4 4 4 5 4 4
5 8 5 4 4 11 9 5 8 9 11 13 16 13 9 5 2 6 7 9 10 9 8 7 7 6 5 4 4 3 2 1 1 1 2 2 2 3 3 4 4 4 4 4
3 4 6 5 5 11 8 4 6 5 9 9 14 14 9 5 4 8 6 6 6 5 5 5 4 4 4 4 4 3 3 2 2 2 2 2 2 2 3 4 4 4 4 4
6 4 6 7 7 13 8 5 8 7 10 5 10 11 10 11 10 5 4 4 5 5 5 5 5 4 5 4 4 4 3 4 3 2 2 1 2 2 3 3 3 3 3 3
14 11 10 8 8 15 7 11 13 11 3 4 6 8 9 9 6 4 4 4 4 4 4 5 5 4 3 4 5 4 4 4 2 1 2 2 2 2 2 2 3 3 3 3
13 14 11 14 14 6 10 11 9 5 5 5 6 6 7 7 6 5 5 5 5 5 5 5 5 4 3 4 5 5 4 2 2 1 2 2 2 2 2 2 2 2 2 2
7 5 6 8 12 8 9 8 7 7 8 6 6 6 7 7 7 6 5 5 5 5 5 4 5 5 4 4 4 5 3 3 3 3 3 2 2 2 2 2 2 2 2 2
10 10 7 10 10 6 9 13 13 10 8 6 6 7 8 8 7 7 7 7 6 6 5 5 6 6 6 5 5 4 3 4 3 3 3 2 2 2 2 2 2 3 3 3
11 13 14 14 11 9 10 11 12 12 12 11 9 8 7 9 9 8 7 7 6 6 5 5 6 6 6 5 5 4 4 4 4 3 3 2 2 2 2 2 3 4 4 5
Wind_Direction
38 65 82 210 187 154 136 129 128 168 153 93 136 187 231 218 166 173 179 167 157 275 338 25 33 22 23 21 19 18 15 6 1 356 354 350 352 1 8 7 2 359 1 1
59 50 280 9 78 103 114 115 113 82 62 109 134 253 242 222 202 197 193 195 200 269 354 6 20 22 20 16 12 16 13 8 3 356 347 338 339 349 355 357 2 358 1 1
121 221 332 83 81 104 87 137 156 154 29 56 81 313 276 254 206 190 198 203 201 195 240 320 360 4 9 9 3 4 2 7 0 0 6 7 7 352 1 354 351 346 353 358
82 0 67 82 76 116 141 134 130 126 112 264 155 275 273 235 234 222 219 220 221 216 216 253 315 351 354 341 347 356 358 6 2 6 24 26 15 354 337 335 332 338 350 350
76 39 77 93 117 112 146 127 104 103 94 24 313 208 280 225 239 234 225 221 221 218 208 217 231 257 317 333 344 349 358 4 5 8 17 21 6 338 332 335 339 341 346 344
79 27 66 120 43 109 126 82 61 47 63 299 224 182 270 225 221 221 215 217 215 213 210 209 210 320 351 353 354 351 1 358 0 5 10 11 352 343 346 341 336 334 337 342
42 3 1 57 84 46 84 100 58 8 3 253 228 199 252 240 216 204 202 209 212 206 200 201 191 242 336 346 347 347 355 350 352 358 3 356 344 343 340 334 337 340 342 345
144 248 271 2 144 154 153 139 155 185 217 269 278 233 254 259 232 200 187 192 197 202 201 205 202 201 222 283 322 335 337 336 344 353 354 352 350 342 337 342 341 338 331 328
158 188 346 18 28 133 141 176 158 126 91 283 264 274 291 249 196 177 183 190 203 205 206 208 202 197 209 233 260 282 311 331 341 346 350 354 354 350 341 340 340 335 334 332
139 135 282 315 56 15 139 145 113 126 153 248 278 255 241 222 218 212 210 212 214 208 209 207 205 204 215 223 242 279 310 316 328 340 343 343 342 338 337 344 344 339 334 335
111 123 63 29 196 190 148 154 144 135 164 173 252 264 225 208 202 205 214 212 207 207 206 207 211 209 211 222 251 307 324 329 335 337 337 339 335 337 340 344 337 331 332 334
133 117 149 241 269 256 197 190 159 163 214 200 218 265 255 209 206 202 209 211 209 208 205 206 206 199 198 212 244 278 302 312 314 325 333 331 334 342 344 337 331 332 332 330
140 122 98 350 314 278 232 214 185 142 133 173 197 259 297 202 202 203 203 210 209 204 203 201 196 200 206 214 232 252 270 285 308 329 332 333 337 340 334 329 329 330 329 328
120 137 171 193 207 177 199 205 183 154 176 208 225 245 266 246 227 226 220 214 207 206 202 199 206 211 211 215 226 245 268 285 310 328 327 325 323 324 325 328 332 330 328 328
120 169 207 241 50 169 208 206 195 201 202 207 231 231 243 235 224 222 218 210 207 213 210 206 208 212 211 215 229 244 270 298 314 327 325 314 319 328 333 332 331 331 331 326
122 150 140 289 319 263 259 231 212 219 221 233 254 262 247 236 218 221 218 209 213 217 217 213 210 210 211 215 224 236 256 278 308 308 310 322 334 337 336 332 332 335 333 329
144 135 141 243 325 2 266 221 201 206 209 200 226 242 232 227 222 219 214 211 214 218 216 212 210 210 212 213 211 216 230 240 288 305 325 336 337 334 331 333 336 334 329 329
148 137 139 139 82 241 243 191 190 207 228 215 229 239 222 227 234 228 212 208 214 215 212 210 208 208 207 202 200 201 189 176 205 283 317 326 330 325 328 334 332 328 327 326
158 146 137 148 218 272 280 209 177 193 249 220 225 237 238 239 287 271 228 209 211 210 206 203 200 196 192 189 186 171 178 187 210 264 291 304 313 316 321 322 317 316 320 321
122 129 140 155 191 240 246 195 170 141 266 225 208 221 218 171 219 252 219 203 207 200 191 187 179 170 178 187 170 169 191 202 234 253 270 290 300 297 296 298 304 312 315 314
164 168 183 186 221 257 241 167 133 175 240 209 195 206 193 195 215 219 177 192 197 191 185 169 164 175 188 175 164 183 198 221 237 249 263 280 283 279 279 291 306 311 315 322
175 177 190 172 210 247 188 154 187 213 210 181 187 194 196 211 217 206 200 195 186 182 176 166 169 187 182 168 170 189 213 226 222 229 249 265 276 279 287 292 304 313 314 317
197 191 184 194 215 232 175 196 211 192 197 203 194 198 192 201 210 208 209 204 196 189 186 180 180 187 183 180 181 198 217 198 197 218 246 265 277 283 288 285 295 311 309 304
227 194 187 230 246 234 221 231 229 213 213 214 203 196 188 201 207 207 209 207 203 199 193 183 179 192 203 198 199 205 193 179 187 214 235 244 253 273 284 282 279 280 280 284
196 176 198 238 252 258 244 226 227 225 225 225 219 208 204 202 208 206 209 211 206 202 193 184 191 204 210 198 203 201 184 175 192 214 229 239 241 254 273 275 268 268 261 255
189 183 189 220 212 200 228 220 209 209 218 217 214 220 215 203 209 209 214 213 203 200 192 192 201 208 208 196 203 199 187 182 188 208 221 227 231 243 254 274 295 293 288 299